User: anonymous   Login
Location: Unspecified
(0.0000°N, 0.0000°E)
Time: 18:59:42
(UTC+00:00)
Language:

ZACube-1 - Orbit

View from above orbital plane
View from above orbital plane
View from above satellite
View from above satellite

Ground track
Ground track

The orbit data is extracted from the following two-line orbital elements,

1 39417U 13066B   17084.70147331 +.00000338 +00000-0 +49357-4 0  9992
2 39417 097.6404 130.9483 0059495 181.5771 178.5264 14.80646351180422
Epoch (UTC): 25 March 2017 16:50:07
Eccentricity: 0.0059495
inclination: 97.6404°
perigee height: 585 km
apogee height: 669 km
right ascension of ascending node: 130.9483°
argument of perigee: 181.5771°
revolutions per day: 14.80646351
mean anomaly at epoch: 178.5264°
orbit number at epoch: 18042

The dashed part of the orbit path shows where the satellite is in the earth's shadow,  

DLR